Temperature
16 16 16 16 16 15 15 15 15 15 15 15 15 14 14 14 14 14 14 14 14 14 14 14 14 14 14 13 13 13 13 13 13 13 12 12 12 12 12 12 12 12 12
16 16 16 16 15 15 15 15 15 15 15 15 14 14 14 14 14 14 14 13 13 13 13 13 13 13 13 13 13 13 13 12 12 12 12 12 11 12 12 11 12 11 11
16 16 15 15 15 15 15 15 14 14 14 14 14 14 14 14 13 13 13 13 13 13 13 13 13 13 13 13 13 12 12 12 12 12 12 11 11 11 11 11 11 11 11
15 15 15 15 15 15 15 14 14 14 14 14 14 14 14 13 13 13 13 13 13 12 12 12 12 12 12 12 12 12 12 12 12 12 12 11 11 11 10 10 10 10 10
15 15 15 15 15 15 14 14 14 14 14 14 13 13 13 13 13 13 13 12 12 12 12 12 12 12 12 12 12 12 12 11 11 11 11 11 11 11 11 10 10 10 10
15 15 15 15 15 14 14 14 14 14 14 14 13 13 13 13 13 13 12 12 12 12 12 11 11 11 11 11 11 11 11 11 11 11 11 11 11 11 10 10 10 10 10
15 15 15 14 14 14 14 14 14 14 13 13 13 13 13 12 12 12 12 12 12 12 11 11 11 11 11 11 11 11 11 11 11 10 10 10 10 10 10 10 9 9 9
14 14 14 14 14 14 14 14 13 13 13 13 13 12 12 12 12 12 12 12 11 11 11 11 11 11 11 11 10 10 10 10 10 10 10 10 10 10 10 9 9 9 9
14 14 14 14 14 14 13 13 13 13 13 13 13 12 12 12 12 12 12 11 11 11 11 11 11 10 10 10 10 10 10 10 10 10 10 9 9 9 9 9 9 9 8
13 14 14 14 14 13 13 13 13 13 13 12 12 12 12 12 11 11 11 11 11 11 11 11 11 10 10 10 10 10 10 9 9 9 9 9 9 9 9 9 9 8 8
13 13 13 13 13 13 13 13 12 12 12 12 12 12 12 11 11 11 11 11 11 11 11 11 10 10 10 10 10 9 9 9 9 9 9 9 9 8 8 8 8 8 8
13 13 13 13 13 13 12 12 12 12 12 12 12 11 11 11 11 11 11 11 11 11 10 10 10 10 10 10 9 9 9 9 9 9 9 8 8 8 8 8 8 8 8
13 12 13 13 13 12 12 12 12 11 11 11 11 11 11 11 11 11 11 11 10 10 10 10 10 10 9 9 9 9 9 9 9 8 8 8 8 8 8 8 8 8 7
12 12 12 12 12 12 12 12 11 11 11 11 11 11 11 11 11 10 10 10 10 10 10 10 10 9 9 9 9 9 9 8 8 8 8 8 8 8 8 8 7 7 7
12 12 12 12 12 12 11 11 11 11 11 10 10 10 10 10 10 10 10 10 10 10 10 10 10 9 9 9 9 8 8 8 8 8 8 8 7 7 7 7 7 7 7
12 12 12 12 11 11 11 11 11 11 10 10 10 10 10 10 10 10 10 10 10 9 9 9 9 9 9 9 8 8 8 8 8 8 8 8 7 7 7 7 7 7 7
11 12 11 11 11 11 11 10 10 10 10 10 10 9 9 9 9 9 9 9 9 9 9 9 9 9 9 8 8 8 8 8 8 8 8 7 7 7 7 7 6 6 6
11 11 11 11 11 11 10 10 10 10 10 9 9 9 9 9 9 9 9 9 9 9 9 9 9 9 8 8 8 8 8 7 7 7 7 7 7 7 7 6 6 6 6
11 11 11 11 10 10 10 10 10 9 9 9 9 9 9 8 8 8 9 9 9 9 9 8 8 8 8 8 8 7 7 7 7 7 7 7 7 7 6 6 6 6 6
11 11 11 10 10 10 9 9 9 9 9 9 8 8 8 8 8 8 8 8 8 8 8 8 8 8 8 8 7 7 7 7 7 7 7 7 6 6 6 6 6 6 6
11 10 10 10 9 9 9 9 9 8 8 8 8 8 8 8 8 8 8 8 8 8 8 7 7 7 7 7 7 7 7 7 7 7 7 6 6 6 6 6 6 6 6
10 10 9 9 9 9 8 8 8 8 8 8 8 8 7 7 7 7 7 7 7 7 7 7 7 7 7 7 7 7 6 6 6 6 6 6 6 6 6 6 5 5 5
9 9 9 8 8 8 8 8 7 7 7 7 7 7 7 7 7 7 7 7 7 7 7 7 7 7 7 7 6 6 6 6 6 6 6 6 6 6 6 5 5 5 5
9 9 8 8 8 8 7 7 7 7 7 7 7 7 7 7 7 6 6 6 6 6 6 6 6 6 6 6 6 6 6 6 6 5 5 5 5 5 5 5 5 5 5
8 8 8 8 7 7 7 7 6 6 6 6 6 6 6 6 6 6 6 6 6 6 6 6 6 6 6 6 6 5 5 5 5 5 5 5 5 5 5 5 5 5 4
8 8 7 7 7 7 7 7 6 6 6 6 6 6 6 6 6 6 6 6 5 5 5 5 5 5 5 5 5 5 5 5 5 5 5 5 5 5 5 5 4 4 4
Wind_Speed
2 1 2 2 3 2 3 3 3 3 3 3 2 2 2 2 2 3 5 5 5 5 5 4 4 4 4 3 3 3 4 4 3 3 4 4 5 6 5 6 6 7 8
1 2 2 2 3 2 2 2 2 2 3 2 2 2 2 1 1 3 4 5 4 4 4 4 3 3 3 4 4 3 2 2 3 2 2 2 4 4 5 5 5 5 6
5 3 3 2 2 2 2 2 2 2 2 3 3 3 3 3 2 2 2 4 4 4 4 4 4 3 3 3 2 3 3 2 3 3 2 2 1 2 3 4 4 5 4
4 4 4 3 3 2 2 2 2 2 2 3 4 4 3 2 1 0 1 2 3 4 4 4 4 3 3 2 2 2 2 3 2 2 3 2 2 2 1 3 3 4 4
5 5 4 4 3 2 2 2 2 3 2 3 3 3 2 1 1 1 2 2 3 3 3 3 3 3 3 2 2 2 2 2 2 1 1 2 2 2 2 1 3 3 3
3 3 3 3 2 2 2 2 3 2 2 3 3 3 3 2 2 1 1 1 1 2 2 3 3 3 3 2 2 2 3 2 2 2 2 2 1 1 1 1 1 2 3
3 2 3 3 3 2 2 2 3 2 2 3 2 2 3 3 3 2 2 1 0 0 0 2 2 2 2 3 3 3 2 2 2 2 1 1 1 1 2 2 0 1 2
2 2 3 3 3 3 3 2 2 2 2 2 2 2 2 2 2 2 2 2 2 2 1 2 2 2 2 3 3 2 1 2 2 2 1 1 1 1 1 2 2 0 2
1 1 2 3 3 3 3 3 3 2 1 2 2 2 2 2 2 2 2 1 1 1 2 2 2 2 2 3 3 2 1 1 1 1 1 1 0 0 1 1 2 3 1
1 1 1 1 3 3 2 2 2 2 2 1 1 1 1 2 2 2 2 2 2 2 3 3 3 2 2 2 2 1 1 2 1 1 1 1 1 0 1 1 1 2 2
1 1 1 1 2 2 2 2 1 1 1 1 1 1 1 1 1 1 2 2 2 3 3 3 3 2 2 2 2 1 1 1 1 1 0 0 0 0 0 1 1 1 1
1 1 1 1 1 2 2 2 2 2 1 1 1 1 1 1 1 1 1 1 2 2 3 3 3 3 2 2 2 2 1 2 1 1 1 1 0 0 0 0 1 1 1
0 1 1 1 0 1 2 2 2 2 1 1 1 1 1 1 1 2 1 1 2 2 2 3 3 3 3 2 2 2 2 2 2 2 2 2 1 1 1 1 1 1 1
0 1 1 1 1 0 1 1 1 1 1 1 1 1 1 2 2 2 1 2 2 3 3 2 2 3 3 3 3 3 2 2 1 2 2 2 3 3 2 2 2 2 1
1 0 1 1 1 1 1 1 1 1 1 2 2 2 2 1 1 1 2 1 2 3 3 2 2 1 2 3 4 3 3 2 2 2 2 3 3 4 3 2 3 3 2
2 1 1 1 1 1 2 2 2 2 2 3 3 2 1 1 1 2 2 2 2 2 2 3 2 2 2 3 5 4 3 3 3 2 3 3 4 4 4 3 3 3 3
3 2 2 2 2 3 2 2 3 2 2 3 2 2 2 2 2 2 1 2 3 3 3 3 3 3 4 4 4 4 3 3 3 3 3 3 3 2 2 2 2 3 4
3 3 3 2 3 2 2 2 1 2 2 3 3 2 2 3 2 1 2 3 3 3 4 4 3 3 4 5 4 4 3 3 3 4 4 4 3 3 2 2 2 3 4
4 3 3 3 2 2 2 1 1 2 2 3 4 4 3 3 3 3 3 3 3 3 4 3 3 4 5 5 4 3 2 2 3 4 4 4 4 6 3 2 3 3 4
2 2 1 1 1 2 1 1 2 2 4 5 5 4 3 4 4 5 4 3 3 4 4 3 4 4 4 5 5 4 2 2 3 3 4 6 6 6 5 3 3 4 5
2 1 1 1 2 2 1 2 2 4 5 4 3 2 3 4 4 4 3 3 3 3 3 3 3 4 5 5 6 5 3 4 3 3 4 5 7 7 7 6 5 7 5
1 1 1 2 2 1 1 2 4 4 3 2 2 2 2 3 2 2 2 3 3 3 3 3 3 3 4 5 6 6 5 4 4 4 4 5 7 7 7 6 6 6 4
1 1 1 2 2 2 2 3 5 3 2 1 2 2 2 2 2 2 2 2 2 3 3 3 4 4 3 4 6 7 7 6 4 4 6 6 6 5 5 6 6 4 2
1 1 1 1 3 3 3 3 4 2 1 2 2 2 2 2 2 2 2 2 3 3 4 4 4 4 3 3 3 4 5 5 5 4 4 5 4 3 4 4 3 3 3
1 1 1 3 4 3 4 3 2 1 1 2 2 2 2 2 3 3 3 4 4 5 5 5 5 5 5 7 7 5 4 4 5 2 1 1 1 2 2 2 2 3 2
1 1 2 3 3 3 4 3 2 1 2 2 3 2 2 2 2 2 3 4 4 6 7 7 6 6 8 8 7 7 7 7 5 3 2 3 4 4 4 4 4 3 4
Wind_Direction
226 164 147 129 116 107 110 113 117 119 121 114 108 93 67 38 39 43 48 60 65 70 74 66 56 59 68 69 75 83 71 52 39 63 46 32 37 42 37 37 40 36 34
197 157 143 125 131 134 136 129 137 142 140 124 121 121 116 87 62 38 42 48 63 72 81 80 71 68 76 67 63 76 83 49 39 73 79 35 14 20 30 31 37 28 29
195 181 163 159 146 155 168 159 156 141 124 105 98 85 65 48 36 28 21 22 52 72 78 86 83 74 84 89 71 75 95 93 39 49 99 115 179 343 2 24 29 20 24
190 179 172 166 173 194 159 136 135 126 120 121 121 128 132 144 197 202 22 17 46 70 80 88 89 83 80 89 83 80 91 111 92 45 45 89 145 140 2 354 9 15 22
187 185 182 182 177 163 150 148 133 125 125 125 131 126 123 140 115 76 68 40 36 53 67 83 86 85 81 89 87 78 77 94 115 107 88 69 56 78 131 335 340 357 358
181 180 165 147 144 141 144 145 140 142 142 134 134 138 138 134 123 117 115 59 31 38 57 79 80 83 85 93 98 94 88 85 92 89 95 119 125 142 128 155 311 331 329
153 148 143 147 152 152 156 154 148 156 158 148 155 159 155 152 161 176 174 163 115 70 225 102 94 91 94 93 89 94 93 96 100 101 93 96 113 148 142 137 173 330 321
135 154 164 167 168 165 161 159 161 170 166 167 181 175 163 155 174 181 177 185 196 205 158 128 117 102 96 95 93 93 100 90 93 88 94 91 57 120 149 156 149 65 342
145 150 146 156 156 163 177 179 173 166 167 176 179 181 178 174 183 182 167 180 191 164 136 134 129 114 106 105 105 98 94 96 91 80 78 83 39 81 127 145 155 155 203
40 94 103 156 174 177 172 165 171 180 190 177 184 192 196 200 193 172 178 188 183 149 142 145 137 126 113 110 109 99 90 96 61 62 72 46 7 44 75 127 128 147 169
225 202 190 196 169 148 155 161 162 166 187 191 182 156 192 188 158 172 205 200 174 159 155 155 150 144 133 124 121 124 119 109 50 8 85 343 339 69 46 91 105 110 143
223 198 145 88 111 149 161 168 178 183 198 179 147 159 173 170 166 196 217 178 166 160 158 150 154 157 148 144 155 165 157 162 187 230 205 259 205 39 313 153 166 184 177
17 38 71 80 118 190 195 193 187 193 178 147 140 133 155 180 201 215 209 179 155 144 138 149 163 175 170 171 178 179 185 188 203 207 203 219 179 219 251 218 208 216 200
142 68 33 6 341 280 229 215 211 196 175 157 167 199 233 228 219 202 191 184 167 161 166 167 177 186 184 184 188 183 189 199 219 225 223 219 210 211 212 216 209 197 186
12 265 253 296 332 330 309 269 231 211 191 180 204 239 260 271 231 194 192 188 178 180 175 170 176 179 193 195 188 190 193 195 214 243 248 245 240 235 226 228 205 187 188
244 246 250 252 266 269 279 278 265 232 196 198 224 241 239 255 261 229 205 196 200 188 169 184 196 205 228 219 199 185 184 191 202 236 261 268 263 260 254 246 228 209 204
242 243 249 250 250 252 243 251 252 239 210 216 232 236 223 225 243 246 217 215 213 198 193 203 210 224 237 228 216 204 181 197 215 226 241 266 270 274 245 256 259 259 252
247 246 247 252 255 254 257 253 263 224 227 236 244 247 235 233 241 235 235 233 222 209 210 215 219 228 246 236 225 216 180 207 227 230 229 233 249 255 228 223 255 264 266
234 234 234 240 253 266 260 236 259 247 237 243 248 248 236 228 226 232 241 243 228 218 217 217 212 222 249 239 226 211 181 218 245 246 243 235 238 251 243 217 243 266 277
243 237 254 301 292 287 251 222 251 252 252 252 253 249 237 232 232 232 236 239 231 224 216 220 219 221 239 244 239 221 189 217 246 258 257 256 250 252 242 220 223 249 264
245 223 207 255 271 276 236 249 261 262 264 268 263 250 245 244 242 238 228 222 223 222 223 226 231 228 239 248 243 234 203 214 230 248 256 258 259 255 249 243 234 249 257
262 219 223 277 290 266 216 257 268 271 271 260 260 262 258 258 260 237 242 224 206 212 226 229 246 247 249 248 250 248 243 236 220 240 246 252 260 260 257 252 257 262 262
257 263 231 279 300 286 232 251 274 283 267 247 261 272 273 267 256 237 239 244 219 212 226 227 240 254 250 255 256 254 253 249 241 242 253 258 255 257 259 257 261 259 238
274 265 240 276 287 286 276 261 278 286 260 256 271 274 266 273 272 258 238 229 228 233 234 232 238 247 249 247 250 252 256 255 251 251 261 264 254 248 255 262 260 249 238
278 229 228 252 269 282 289 289 285 283 265 266 270 273 265 259 262 260 247 242 234 228 233 232 228 230 243 244 243 241 243 239 233 218 206 237 267 262 262 265 260 257 257
281 275 267 271 281 293 294 293 279 249 238 261 267 259 256 259 261 268 290 283 263 264 260 252 243 244 248 253 251 252 254 251 230 201 218 232 236 240 244 250 258 256 253
Height
1525 1526 1527 1528 1529 1529 1530 1530 1530 1530 1531 1531 1531 1531 1531 1531 1531 1531 1530 1530 1530 1529 1529 1528 1528 1528 1527 1527 1527 1527 1527 1527 1527 1526 1526 1526 1526 1526 1526 1525 1525 1525 1524
1524 1525 1526 1527 1528 1529 1529 1530 1530 1530 1530 1531 1531 1531 1531 1531 1531 1530 1530 1530 1529 1529 1528 1528 1528 1527 1527 1527 1527 1527 1527 1527 1527 1527 1526 1527 1528 1527 1526 1526 1526 1525 1525
1522 1523 1525 1526 1527 1528 1529 1529 1530 1530 1530 1530 1531 1531 1531 1530 1530 1530 1530 1529 1529 1528 1528 1527 1527 1527 1527 1527 1527 1526 1527 1527 1527 1527 1528 1527 1527 1527 1527 1526 1526 1526 1525
1520 1521 1523 1524 1525 1527 1528 1529 1529 1530 1530 1530 1530 1530 1530 1530 1530 1529 1529 1529 1528 1528 1527 1527 1527 1527 1526 1526 1526 1526 1526 1526 1526 1526 1527 1528 1527 1527 1527 1527 1527 1526 1525
1518 1520 1521 1523 1524 1526 1527 1528 1528 1529 1529 1529 1529 1529 1529 1529 1529 1529 1528 1528 1528 1527 1527 1527 1526 1526 1526 1526 1526 1526 1526 1526 1526 1526 1526 1526 1526 1526 1526 1526 1526 1526 1525
1517 1519 1520 1522 1523 1525 1526 1526 1527 1528 1528 1528 1528 1528 1528 1528 1528 1527 1527 1527 1527 1527 1526 1526 1526 1526 1526 1525 1525 1525 1525 1525 1525 1525 1525 1525 1525 1525 1525 1524 1524 1524 1525
1516 1517 1519 1520 1521 1523 1524 1524 1525 1526 1527 1527 1527 1527 1527 1526 1526 1526 1526 1526 1526 1526 1526 1525 1525 1525 1525 1525 1525 1525 1524 1524 1524 1524 1524 1524 1524 1524 1524 1524 1523 1523 1523
1515 1516 1517 1518 1520 1521 1522 1523 1523 1524 1525 1525 1526 1526 1526 1525 1525 1525 1525 1525 1524 1525 1524 1524 1524 1524 1524 1524 1524 1524 1524 1523 1523 1523 1523 1523 1523 1523 1523 1523 1523 1522 1522
1514 1515 1516 1517 1518 1519 1520 1521 1522 1522 1523 1524 1524 1524 1524 1524 1524 1524 1524 1523 1523 1523 1523 1523 1523 1523 1523 1523 1523 1523 1522 1522 1522 1522 1522 1522 1522 1522 1522 1522 1522 1523 1521
1514 1514 1515 1515 1517 1518 1519 1520 1520 1521 1521 1522 1522 1522 1522 1522 1522 1522 1522 1522 1522 1522 1521 1521 1521 1521 1521 1522 1522 1522 1522 1521 1521 1521 1521 1521 1521 1521 1521 1521 1521 1521 1520
1513 1514 1514 1515 1515 1516 1517 1518 1518 1519 1519 1519 1520 1520 1520 1520 1520 1520 1520 1520 1520 1520 1520 1520 1520 1520 1520 1520 1520 1520 1520 1520 1520 1520 1520 1520 1519 1519 1519 1519 1519 1519 1519
1513 1513 1513 1514 1514 1514 1515 1516 1516 1516 1517 1517 1517 1517 1518 1518 1517 1518 1518 1518 1518 1518 1519 1519 1519 1519 1519 1519 1519 1519 1519 1518 1518 1518 1518 1518 1518 1518 1518 1518 1518 1517 1517
1512 1512 1512 1512 1512 1513 1514 1514 1514 1514 1515 1515 1515 1515 1515 1515 1515 1515 1516 1516 1516 1517 1517 1517 1517 1517 1517 1517 1517 1517 1517 1517 1517 1516 1516 1516 1516 1516 1516 1516 1515 1515 1515
1511 1511 1511 1511 1511 1512 1512 1512 1512 1513 1513 1513 1513 1513 1512 1512 1513 1513 1513 1514 1514 1515 1515 1515 1515 1516 1516 1516 1516 1516 1515 1515 1515 1515 1514 1514 1514 1513 1513 1513 1513 1513 1512
1510 1510 1510 1510 1511 1510 1510 1510 1510 1511 1511 1511 1510 1510 1510 1510 1510 1511 1511 1511 1512 1512 1512 1513 1513 1513 1514 1514 1514 1514 1513 1513 1513 1512 1512 1512 1511 1511 1511 1511 1511 1510 1510
1509 1509 1509 1509 1509 1509 1509 1509 1509 1508 1508 1508 1508 1508 1508 1508 1508 1508 1508 1508 1509 1509 1510 1510 1510 1511 1511 1511 1511 1511 1511 1511 1510 1510 1509 1509 1509 1508 1508 1508 1508 1508 1507
1507 1508 1508 1508 1508 1508 1507 1507 1506 1506 1506 1505 1505 1505 1505 1505 1505 1505 1505 1505 1506 1506 1506 1507 1507 1508 1508 1508 1509 1508 1508 1508 1507 1507 1506 1506 1506 1505 1505 1505 1504 1504 1504
1506 1506 1506 1506 1506 1506 1505 1505 1504 1503 1503 1503 1502 1502 1502 1502 1501 1502 1502 1502 1502 1503 1503 1504 1504 1504 1505 1505 1505 1505 1505 1505 1504 1504 1503 1503 1503 1502 1502 1501 1501 1500 1500
1505 1505 1504 1504 1504 1503 1502 1502 1501 1501 1500 1500 1499 1499 1499 1498 1498 1498 1498 1498 1498 1499 1499 1500 1501 1501 1501 1502 1502 1502 1501 1501 1501 1500 1500 1499 1499 1499 1499 1498 1497 1496 1496
1503 1502 1502 1502 1501 1501 1500 1499 1499 1498 1497 1497 1496 1496 1495 1495 1494 1494 1494 1494 1495 1495 1496 1496 1497 1497 1497 1498 1498 1498 1497 1497 1497 1496 1496 1496 1495 1495 1495 1494 1493 1492 1492
1501 1500 1500 1499 1499 1498 1497 1496 1495 1495 1494 1494 1493 1492 1491 1491 1491 1490 1490 1490 1491 1491 1491 1492 1492 1493 1493 1494 1494 1494 1493 1493 1492 1492 1492 1491 1491 1491 1491 1490 1490 1489 1488
1498 1498 1497 1497 1496 1496 1495 1493 1492 1492 1491 1490 1489 1489 1488 1487 1487 1487 1486 1487 1487 1487 1487 1487 1487 1488 1489 1489 1489 1489 1490 1489 1489 1488 1488 1487 1487 1486 1486 1486 1485 1485 1484
1495 1495 1495 1494 1494 1493 1492 1490 1489 1489 1488 1487 1486 1485 1484 1484 1484 1483 1482 1482 1482 1482 1482 1482 1483 1483 1484 1484 1485 1485 1485 1485 1484 1484 1484 1483 1483 1482 1481 1481 1481 1480 1480
1493 1492 1492 1491 1490 1490 1489 1488 1487 1486 1484 1483 1482 1481 1481 1480 1480 1479 1479 1478 1478 1478 1478 1478 1478 1478 1479 1479 1479 1479 1479 1479 1479 1479 1479 1479 1478 1477 1477 1477 1476 1475 1475
1490 1489 1489 1488 1488 1487 1486 1485 1484 1483 1481 1480 1479 1478 1477 1477 1476 1475 1475 1474 1474 1474 1474 1474 1474 1474 1473 1474 1475 1474 1474 1474 1474 1474 1474 1473 1473 1472 1472 1472 1471 1471 1470
1487 1487 1486 1486 1485 1484 1483 1482 1481 1480 1479 1477 1476 1475 1474 1473 1472 1472 1471 1470 1470 1470 1470 1470 1470 1469 1469 1469 1469 1469 1469 1469 1469 1469 1468 1468 1467 1467 1467 1466 1466 1466 1465